Time,TemperatureF,DewpointF,PressureIn,WindDirection,WindDirectionDegrees,WindSpeedMPH,WindSpeedGustMPH,Humidity,HourlyPrecipIn,Conditions,Clouds,dailyrainin,SoftwareType,DateUTC
2013-04-14 00:03:00,45.0,37.0,29.89,NNW,340,1.0,1.0,73,0.00,,,0.07,,2013-04-14 04:03:00,
2013-04-14 00:13:00,45.0,37.0,29.89,NNW,340,1.0,1.0,73,0.00,,,0.07,,2013-04-14 04:13:00,
2013-04-14 00:23:00,45.0,37.0,29.90,NNW,345,1.0,3.0,74,0.00,,,0.07,,2013-04-14 04:23:00,
2013-04-14 00:33:00,45.0,38.0,29.91,NNW,328,1.0,3.0,77,0.00,,,0.07,,2013-04-14 04:33:00,
2013-04-14 00:43:00,45.0,38.0,29.91,NNW,328,1.0,3.0,77,0.00,,,0.07,,2013-04-14 04:43:00,
2013-04-14 00:52:00,44.0,38.0,29.91,North,6,0.0,3.0,78,0.00,,,0.07,,2013-04-14 04:52:00,
2013-04-14 01:03:00,44.0,38.0,29.91,North,6,0.0,0.0,78,0.00,,,0.07,,2013-04-14 05:03:00,
2013-04-14 01:12:00,44.0,38.0,29.91,North,6,0.0,0.0,78,0.00,,,0.07,,2013-04-14 05:12:00,
2013-04-14 01:22:00,44.0,38.0,29.89,North,6,0.0,0.0,78,0.00,,,0.07,,2013-04-14 05:22:00,
2013-04-14 01:32:00,43.0,36.0,29.89,North,6,0.0,0.0,77,0.00,,,0.07,,2013-04-14 05:32:00,
2013-04-14 01:42:00,43.0,36.0,29.89,North,6,0.0,0.0,77,0.00,,,0.07,,2013-04-14 05:42:00,
2013-04-14 01:52:00,42.0,35.0,29.89,North,6,0.0,0.0,77,0.00,,,0.07,,2013-04-14 05:52:00,
2013-04-14 02:02:00,42.0,35.0,29.88,North,6,0.0,0.0,77,0.00,,,0.07,,2013-04-14 06:02:00,
2013-04-14 02:12:00,42.0,35.0,29.88,North,6,0.0,0.0,77,0.00,,,0.07,,2013-04-14 06:12:00,
2013-04-14 02:22:00,42.0,35.0,29.88,North,6,0.0,0.0,77,0.00,,,0.07,,2013-04-14 06:22:00,
2013-04-14 02:32:00,41.0,35.0,29.88,North,6,0.0,0.0,80,0.00,,,0.07,,2013-04-14 06:32:00,
2013-04-14 02:42:00,41.0,35.0,29.88,North,6,0.0,0.0,80,0.00,,,0.07,,2013-04-14 06:42:00,
2013-04-14 02:53:00,40.0,36.0,29.88,North,6,0.0,0.0,84,0.00,,,0.07,,2013-04-14 06:53:00,
2013-04-14 03:02:00,40.0,36.0,29.89,North,6,0.0,0.0,85,0.00,,,0.07,,2013-04-14 07:02:00,
2013-04-14 03:12:00,40.0,36.0,29.89,North,6,0.0,0.0,85,0.00,,,0.07,,2013-04-14 07:12:00,
2013-04-14 03:22:00,40.0,36.0,29.89,North,6,0.0,0.0,85,0.00,,,0.07,,2013-04-14 07:22:00,
2013-04-14 03:32:00,39.0,35.0,29.89,North,6,0.0,0.0,86,0.00,,,0.07,,2013-04-14 07:32:00,
2013-04-14 03:42:00,39.0,35.0,29.89,North,6,0.0,0.0,86,0.00,,,0.07,,2013-04-14 07:42:00,
2013-04-14 03:52:00,39.0,35.0,29.89,North,6,0.0,1.0,86,0.00,,,0.03,,2013-04-14 07:52:00,
2013-04-14 04:02:00,39.0,35.0,29.89,North,6,0.0,0.0,86,0.00,,,0.03,,2013-04-14 08:02:00,
2013-04-14 04:12:00,39.0,35.0,29.89,North,6,0.0,0.0,86,0.00,,,0.03,,2013-04-14 08:12:00,
2013-04-14 04:22:00,39.0,35.0,29.90,North,6,0.0,1.0,87,0.00,,,0.03,,2013-04-14 08:22:00,
2013-04-14 04:32:00,40.0,36.0,29.90,North,6,0.0,0.0,87,0.00,,,0.03,,2013-04-14 08:32:00,
2013-04-14 04:42:00,40.0,36.0,29.90,North,6,0.0,0.0,87,0.00,,,0.03,,2013-04-14 08:42:00,
2013-04-14 04:52:00,40.0,36.0,29.90,North,6,0.0,0.0,87,0.00,,,0.00,,2013-04-14 08:52:00,
2013-04-14 05:03:00,40.0,36.0,29.91,North,6,0.0,0.0,86,0.00,,,0.00,,2013-04-14 09:03:00,
2013-04-14 05:12:00,40.0,36.0,29.91,North,6,0.0,0.0,86,0.00,,,0.00,,2013-04-14 09:12:00,
2013-04-14 05:22:00,40.0,36.0,29.91,North,6,0.0,0.0,86,0.00,,,0.00,,2013-04-14 09:22:00,
2013-04-14 05:33:00,40.0,36.0,29.91,North,6,0.0,0.0,86,0.00,,,0.00,,2013-04-14 09:33:00,
2013-04-14 05:43:00,40.0,36.0,29.91,North,6,0.0,0.0,86,0.00,,,0.00,,2013-04-14 09:43:00,
2013-04-14 05:54:00,40.0,36.0,29.90,North,6,0.0,0.0,86,0.00,,,0.00,,2013-04-14 09:54:00,
2013-04-14 06:03:00,40.0,36.0,29.91,North,6,0.0,0.0,86,0.00,,,0.00,,2013-04-14 10:03:00,
2013-04-14 06:12:00,40.0,36.0,29.91,North,6,0.0,0.0,86,0.00,,,0.00,,2013-04-14 10:12:00,
2013-04-14 06:23:00,40.0,36.0,29.91,North,6,0.0,0.0,87,0.00,,,0.00,,2013-04-14 10:23:00,
2013-04-14 06:33:00,40.0,36.0,29.91,North,6,0.0,0.0,87,0.00,,,0.00,,2013-04-14 10:33:00,
2013-04-14 06:42:00,40.0,36.0,29.91,North,6,0.0,0.0,87,0.00,,,0.00,,2013-04-14 10:42:00,
2013-04-14 06:52:00,40.0,36.0,29.92,NNW,348,0.0,2.0,86,0.00,,,0.00,,2013-04-14 10:52:00,
2013-04-14 07:02:00,40.0,36.0,29.92,NNE,26,0.0,2.0,85,0.00,,,0.00,,2013-04-14 11:02:00,
2013-04-14 07:12:00,40.0,36.0,29.92,NNE,26,0.0,2.0,85,0.00,,,0.00,,2013-04-14 11:12:00,
2013-04-14 07:23:00,40.0,35.0,29.93,West,264,0.0,2.0,83,0.00,,,0.00,,2013-04-14 11:23:00,
2013-04-14 07:32:00,40.0,35.0,29.93,West,264,0.0,0.0,83,0.00,,,0.00,,2013-04-14 11:32:00,
2013-04-14 07:42:00,40.0,35.0,29.93,West,264,0.0,0.0,83,0.00,,,0.00,,2013-04-14 11:42:00,
2013-04-14 07:53:00,41.0,36.0,29.94,West,264,0.0,0.0,82,0.00,,,0.00,,2013-04-14 11:53:00,
2013-04-14 08:02:00,42.0,35.0,29.94,North,8,0.0,2.0,77,0.00,,,0.00,,2013-04-14 12:02:00,
2013-04-14 08:12:00,42.0,35.0,29.94,North,8,0.0,2.0,77,0.00,,,0.00,,2013-04-14 12:12:00,
2013-04-14 08:22:00,44.0,36.0,29.93,NNW,341,0.0,2.0,73,0.00,,,0.00,,2013-04-14 12:22:00,
2013-04-14 08:32:00,45.0,36.0,29.93,NW,321,0.0,3.0,70,0.00,,,0.00,,2013-04-14 12:32:00,
2013-04-14 08:42:00,45.0,36.0,29.93,NW,321,0.0,3.0,70,0.00,,,0.00,,2013-04-14 12:42:00,
2013-04-14 08:52:00,46.0,34.0,29.94,NW,320,3.0,6.0,63,0.00,,,0.00,,2013-04-14 12:52:00,
2013-04-14 09:02:00,46.0,34.0,29.94,NNE,30,3.0,5.0,63,0.00,,,0.00,,2013-04-14 13:02:00,
2013-04-14 09:12:00,46.0,34.0,29.94,NNE,30,3.0,5.0,63,0.00,,,0.00,,2013-04-14 13:12:00,
2013-04-14 09:22:00,47.0,35.0,29.94,North,1,0.0,5.0,62,0.00,,,0.00,,2013-04-14 13:22:00,
2013-04-14 09:32:00,47.0,34.0,29.94,NNW,347,2.0,5.0,61,0.00,,,0.00,,2013-04-14 13:32:00,
2013-04-14 09:42:00,47.0,34.0,29.94,NNW,347,2.0,5.0,61,0.00,,,0.00,,2013-04-14 13:42:00,
2013-04-14 09:52:00,46.0,32.0,29.94,NNW,331,2.0,10.0,59,0.00,,,0.00,,2013-04-14 13:52:00,
2013-04-14 10:02:00,46.0,32.0,29.95,NW,324,4.0,7.0,59,0.00,,,0.00,,2013-04-14 14:02:00,
2013-04-14 10:12:00,45.0,32.0,29.96,WNW,290,2.0,3.0,60,0.00,,,0.00,,2013-04-14 14:12:00,
2013-04-14 10:22:00,45.0,32.0,29.96,WNW,290,2.0,3.0,60,0.00,,,0.00,,2013-04-14 14:22:00,
2013-04-14 10:32:00,45.0,32.0,29.96,NNW,331,2.0,4.0,60,0.00,,,0.00,,2013-04-14 14:32:00,
2013-04-14 10:42:00,45.0,32.0,29.96,NNW,331,2.0,4.0,60,0.00,,,0.00,,2013-04-14 14:42:00,
2013-04-14 10:53:00,44.0,33.0,29.97,North,357,0.0,3.0,64,0.00,,,0.00,,2013-04-14 14:53:00,
2013-04-14 11:02:00,44.0,33.0,29.97,NNW,329,2.0,5.0,66,0.00,,,0.00,,2013-04-14 15:02:00,
2013-04-14 11:12:00,44.0,33.0,29.97,NNW,329,2.0,5.0,66,0.00,,,0.00,,2013-04-14 15:12:00,
2013-04-14 11:22:00,44.0,33.0,29.97,NNW,334,0.0,4.0,64,0.00,,,0.00,,2013-04-14 15:22:00,
2013-04-14 11:33:00,47.0,34.0,29.97,NW,307,3.0,8.0,61,0.00,,,0.00,,2013-04-14 15:33:00,
2013-04-14 11:43:00,47.0,34.0,29.97,NW,307,3.0,8.0,61,0.00,,,0.00,,2013-04-14 15:43:00,
2013-04-14 11:53:00,48.0,33.0,29.96,North,5,2.0,5.0,56,0.00,,,0.00,,2013-04-14 15:53:00,
2013-04-14 12:04:00,47.0,31.0,29.96,NNW,342,4.0,10.0,54,0.00,,,0.00,,2013-04-14 16:04:00,
2013-04-14 12:13:00,47.0,31.0,29.96,NNW,342,4.0,10.0,54,0.00,,,0.00,,2013-04-14 16:13:00,
2013-04-14 12:23:00,46.0,30.0,29.96,NNW,331,4.0,6.0,53,0.00,,,0.00,,2013-04-14 16:23:00,
2013-04-14 12:33:00,47.0,31.0,29.96,WNW,297,3.0,5.0,53,0.00,,,0.00,,2013-04-14 16:33:00,
2013-04-14 12:43:00,47.0,31.0,29.96,WNW,297,3.0,5.0,53,0.00,,,0.00,,2013-04-14 16:43:00,
2013-04-14 12:53:00,48.0,30.0,29.95,NW,321,4.0,6.0,50,0.00,,,0.00,,2013-04-14 16:53:00,
2013-04-14 13:02:00,49.0,31.0,29.96,NNW,328,2.0,6.0,49,0.00,,,0.00,,2013-04-14 17:02:00,
2013-04-14 13:13:00,49.0,31.0,29.96,NNW,328,2.0,6.0,49,0.00,,,0.00,,2013-04-14 17:13:00,
2013-04-14 13:22:00,49.0,30.0,29.96,WNW,300,3.0,6.0,48,0.00,,,0.00,,2013-04-14 17:22:00,
2013-04-14 13:33:00,49.0,30.0,29.96,NW,304,5.0,6.0,48,0.00,,,0.00,,2013-04-14 17:33:00,
2013-04-14 13:42:00,49.0,30.0,29.96,NW,304,5.0,6.0,48,0.00,,,0.00,,2013-04-14 17:42:00,
2013-04-14 13:53:00,49.0,29.0,29.96,NW,310,4.0,7.0,46,0.00,,,0.00,,2013-04-14 17:53:00,
2013-04-14 14:02:00,49.0,30.0,29.96,NNW,347,0.0,14.0,47,0.00,,,0.00,,2013-04-14 18:02:00,
2013-04-14 14:12:00,49.0,30.0,29.96,NNW,347,0.0,14.0,47,0.00,,,0.00,,2013-04-14 18:12:00,
2013-04-14 14:22:00,49.0,30.0,29.96,NW,314,2.0,8.0,48,0.00,,,0.00,,2013-04-14 18:22:00,
2013-04-14 14:32:00,49.0,29.0,29.97,North,356,1.0,4.0,46,0.00,,,0.00,,2013-04-14 18:32:00,
2013-04-14 14:43:00,49.0,29.0,29.97,North,356,1.0,4.0,46,0.00,,,0.00,,2013-04-14 18:43:00,
2013-04-14 14:53:00,48.0,29.0,29.97,NW,323,4.0,7.0,47,0.00,,,0.00,,2013-04-14 18:53:00,
2013-04-14 15:03:00,49.0,28.0,29.97,North,349,1.0,10.0,44,0.00,,,0.00,,2013-04-14 19:03:00,
2013-04-14 15:12:00,49.0,28.0,29.97,North,349,1.0,10.0,44,0.00,,,0.00,,2013-04-14 19:12:00,
2013-04-14 15:22:00,49.0,27.0,29.97,NNW,342,0.0,5.0,43,0.00,,,0.00,,2013-04-14 19:22:00,
2013-04-14 15:32:00,49.0,26.0,29.97,North,355,2.0,9.0,41,0.00,,,0.00,,2013-04-14 19:32:00,
2013-04-14 15:43:00,49.0,26.0,29.97,North,355,2.0,9.0,41,0.00,,,0.00,,2013-04-14 19:43:00,
2013-04-14 15:53:00,49.0,27.0,29.97,NNW,342,4.0,5.0,42,0.00,,,0.00,,2013-04-14 19:53:00,
2013-04-14 16:03:00,49.0,26.0,29.98,NNW,332,2.0,9.0,40,0.00,,,0.00,,2013-04-14 20:03:00,
2013-04-14 16:13:00,49.0,26.0,29.98,NNW,332,2.0,9.0,40,0.00,,,0.00,,2013-04-14 20:13:00,
2013-04-14 16:22:00,48.0,27.0,29.98,NNW,328,3.0,8.0,44,0.00,,,0.00,,2013-04-14 20:22:00,
2013-04-14 16:33:00,48.0,27.0,29.98,NNW,342,2.0,11.0,43,0.00,,,0.00,,2013-04-14 20:33:00,
2013-04-14 16:43:00,48.0,27.0,29.98,NNW,342,2.0,11.0,43,0.00,,,0.00,,2013-04-14 20:43:00,
2013-04-14 16:52:00,49.0,27.0,29.99,NW,322,2.0,10.0,43,0.00,,,0.00,,2013-04-14 20:52:00,
2013-04-14 17:02:00,48.0,26.0,30.00,NW,326,7.0,10.0,42,0.00,,,0.00,,2013-04-14 21:02:00,
2013-04-14 17:12:00,48.0,26.0,30.00,NW,326,7.0,10.0,42,0.00,,,0.00,,2013-04-14 21:12:00,
2013-04-14 17:23:00,49.0,26.0,30.00,NE,51,3.0,12.0,40,0.00,,,0.00,,2013-04-14 21:23:00,
2013-04-14 17:33:00,47.0,26.0,30.01,WNW,293,0.0,9.0,44,0.00,,,0.00,,2013-04-14 21:33:00,
2013-04-14 17:43:00,47.0,26.0,30.01,WNW,293,0.0,9.0,44,0.00,,,0.00,,2013-04-14 21:43:00,
2013-04-14 17:53:00,47.0,26.0,30.02,NNW,347,6.0,13.0,44,0.00,,,0.00,,2013-04-14 21:53:00,
2013-04-14 18:03:00,47.0,26.0,30.03,NNW,347,2.0,9.0,43,0.00,,,0.00,,2013-04-14 22:03:00,
2013-04-14 18:13:00,47.0,26.0,30.03,NNW,347,2.0,9.0,43,0.00,,,0.00,,2013-04-14 22:13:00,
2013-04-14 18:23:00,46.0,26.0,30.03,NNW,329,2.0,13.0,45,0.00,,,0.00,,2013-04-14 22:23:00,
2013-04-14 18:33:00,46.0,27.0,30.04,NE,38,0.0,6.0,48,0.00,,,0.00,,2013-04-14 22:33:00,
2013-04-14 18:44:00,46.0,27.0,30.04,NE,38,0.0,6.0,48,0.00,,,0.00,,2013-04-14 22:44:00,
2013-04-14 18:53:00,45.0,26.0,30.04,NW,326,0.0,7.0,47,0.00,,,0.00,,2013-04-14 22:53:00,
2013-04-14 19:02:00,45.0,26.0,30.05,North,352,0.0,7.0,47,0.00,,,0.00,,2013-04-14 23:02:00,
2013-04-14 19:12:00,45.0,26.0,30.05,North,352,0.0,7.0,47,0.00,,,0.00,,2013-04-14 23:12:00,
2013-04-14 19:23:00,45.0,26.0,30.06,North,10,3.0,5.0,47,0.00,,,0.00,,2013-04-14 23:23:00,
2013-04-14 19:33:00,44.0,27.0,30.06,North,354,4.0,6.0,50,0.00,,,0.00,,2013-04-14 23:33:00,
2013-04-14 19:43:00,44.0,27.0,30.06,North,354,4.0,6.0,50,0.00,,,0.00,,2013-04-14 23:43:00,
2013-04-14 19:53:00,43.0,26.0,30.08,NNE,29,0.0,2.0,51,0.00,,,0.00,,2013-04-14 23:53:00,
2013-04-14 20:02:00,43.0,27.0,30.09,North,356,0.0,2.0,52,0.00,,,0.00,,2013-04-15 00:02:00,
2013-04-14 20:12:00,43.0,27.0,30.09,North,356,0.0,2.0,52,0.00,,,0.00,,2013-04-15 00:12:00,
2013-04-14 20:23:00,43.0,28.0,30.09,North,7,0.0,4.0,54,0.00,,,0.00,,2013-04-15 00:23:00,
2013-04-14 20:33:00,42.0,27.0,30.10,North,7,0.0,2.0,54,0.00,,,0.00,,2013-04-15 00:33:00,
2013-04-14 20:42:00,42.0,27.0,30.11,North,7,0.0,0.0,55,0.00,,,0.00,,2013-04-15 00:42:00,
2013-04-14 20:52:00,42.0,27.0,30.11,North,7,0.0,0.0,55,0.00,,,0.00,,2013-04-15 00:52:00,
2013-04-14 21:02:00,41.0,27.0,30.12,North,7,0.0,1.0,57,0.00,,,0.00,,2013-04-15 01:02:00,
2013-04-14 21:12:00,41.0,27.0,30.12,North,7,0.0,1.0,57,0.00,,,0.00,,2013-04-15 01:12:00,
2013-04-14 21:23:00,41.0,27.0,30.14,North,7,0.0,0.0,58,0.00,,,0.00,,2013-04-15 01:23:00,
2013-04-14 21:32:00,40.0,27.0,30.14,North,7,0.0,0.0,59,0.00,,,0.00,,2013-04-15 01:32:00,
2013-04-14 21:42:00,40.0,27.0,30.14,North,7,0.0,0.0,59,0.00,,,0.00,,2013-04-15 01:42:00,
2013-04-14 21:52:00,40.0,27.0,30.15,North,7,0.0,1.0,60,0.00,,,0.00,,2013-04-15 01:52:00,
2013-04-14 22:03:00,40.0,27.0,30.15,North,7,0.0,0.0,60,0.00,,,0.00,,2013-04-15 02:03:00,
2013-04-14 22:12:00,40.0,27.0,30.15,North,7,0.0,0.0,60,0.00,,,0.00,,2013-04-15 02:12:00,
2013-04-14 22:22:00,40.0,28.0,30.15,North,7,0.0,0.0,61,0.00,,,0.00,,2013-04-15 02:22:00,
2013-04-14 22:32:00,39.0,27.0,30.15,North,7,0.0,0.0,61,0.00,,,0.00,,2013-04-15 02:32:00,
2013-04-14 22:42:00,39.0,27.0,30.15,North,7,0.0,0.0,61,0.00,,,0.00,,2013-04-15 02:42:00,
2013-04-14 22:53:00,39.0,27.0,30.15,North,7,0.0,0.0,62,0.00,,,0.00,,2013-04-15 02:53:00,
2013-04-14 23:03:00,39.0,27.0,30.15,North,7,0.0,0.0,62,0.00,,,0.00,,2013-04-15 03:03:00,
2013-04-14 23:12:00,39.0,27.0,30.15,North,7,0.0,0.0,62,0.00,,,0.00,,2013-04-15 03:12:00,
2013-04-14 23:22:00,39.0,27.0,30.16,North,7,0.0,2.0,62,0.00,,,0.00,,2013-04-15 03:22:00,
2013-04-14 23:33:00,39.0,27.0,30.16,North,7,0.0,2.0,62,0.00,,,0.00,,2013-04-15 03:33:00,
2013-04-14 23:43:00,39.0,27.0,30.16,North,7,0.0,2.0,62,0.00,,,0.00,,2013-04-15 03:43:00,
2013-04-14 23:55:00,38.0,27.0,30.16,North,7,0.0,1.0,63,0.00,,,0.00,,2013-04-15 03:55:00,